COSMOS 1275 DEB, 12728

Orbit data source: Space-Track

COSMOS 1275 DEB, 12728 is space debris in LEO originally from a launch on Thu, 04 Jun 1981 UTC launched from the Plesetsk Missile And Space Complex (PKMTR). Debris objects in space refer to the collection of defunct objects orbiting the Earth. Examples of debris include non-operational satellites, rocket bodies, and fragments generated from explosions, collisions, or faulty payload assembly.

Loading next visibility...
Identifier
12728, 1981-053BV
Orbit
LEO
Country
Flag of CISCIS
Related business
Manufacturer
Unknown
Mission
Spacecraft
Bus & Motor
Unknown
Mass
Unknown
Launch date (UTC)
1981-06-04 (45 years ago)
Launch vehicle
Unknown
Launch site
Plesetsk Missile And Space Complex (PKMTR)
Object type
Payload
Rocket body
Debris
Shape & HBR
Unknown shape, 0.2 m
Radar Cross Section
Medium (>0.1 m² and <1 m²)

Expand to show TLE details & history
Last TLE update: 15 hours ago

TLE from 15 hours ago
0 COSMOS 1275 DEB
1 12728U 81053BV  25349.96887825  .00000482  00000-0  46059-3 0  9994
2 12728  82.8071 219.1711 0057497 357.9200  64.4554 13.77890069213068
Epoch: 2025-12-15T23:15Z
TLE epoch observation values (Epoch: 2025-12-15T23:15:11.080Z)
Latitude
62.19159°
Longitude
159.28568°
Altitude
964.013 km
Speed
7.385 km/s
True Right ascension
15h 31m 46s
True Declination
62° 03' 12"
Sunlit
Object was in daylight at epoch
Visualization orbit readout
Latitude
Unknown
Longitude
Unknown
Altitude
Unknown
Speed
Unknown
Apparent Right ascension
Unknown
Apparent Declination
Unknown
Sunlit
N/A
Visualization observer readout
Local Sidereal Time
12:36:23
Azimuth
Unknown
Elevation
Unknown
Doppler factor
Unknown
Orbital elements
Apogee altitude
1,010.771 km
Perigee altitude
926.289 km
Semi-major axis
7,346.667 km
Eccentricity
0.00575
Inclination
82.8071°
RAAN
219.1711°
Arg. of periapsis
357.92°
True anomaly
65.0517°
Mean anomaly
64.4554°
Eccentric anomaly
64.75337°
Mean motion
3.44673 °/min
Orbital period
104.45 mins
BSTAR
0.00046059
Loading maneuver chart data...
Computing Atmospheric mass density...
Loading historical data...
Loading historical data...
Loading historical data...
Loading historical data...
Loading historical data...
Loading historical data...
Loading historical data...

Documentation

Showing up to 5 results
|